TimeMDT,TemperatureF,Dew PointF,Humidity,Sea Level PressureIn,VisibilityMPH,Wind Direction,Wind SpeedMPH,Gust SpeedMPH,PrecipitationIn,Events,Conditions,WindDirDegrees,DateUTC
12:53 AM,50.0,37.9,63,30.00,10.0,NNW,8.1,-,N/A,,Overcast,330,2012-10-14 06:53:00
1:53 AM,46.9,37.9,71,30.03,10.0,NW,9.2,-,N/A,,Clear,320,2012-10-14 07:53:00
2:53 AM,45.0,36.0,71,30.04,10.0,NW,8.1,-,N/A,,Clear,310,2012-10-14 08:53:00
3:53 AM,39.9,35.1,83,30.06,10.0,West,9.2,-,N/A,,Clear,280,2012-10-14 09:53:00
4:53 AM,45.0,36.0,71,30.05,10.0,NW,11.5,-,N/A,,Clear,320,2012-10-14 10:53:00
5:53 AM,37.9,35.1,89,30.10,10.0,West,8.1,-,N/A,,Clear,270,2012-10-14 11:53:00
6:53 AM,37.9,34.0,86,30.11,10.0,West,10.4,-,N/A,,Clear,280,2012-10-14 12:53:00
7:53 AM,42.1,36.0,79,30.12,10.0,WNW,9.2,-,N/A,,Clear,290,2012-10-14 13:53:00
8:53 AM,53.1,37.0,55,30.10,10.0,NW,17.3,-,N/A,,Clear,320,2012-10-14 14:53:00
9:53 AM,57.9,39.0,49,30.09,10.0,WNW,19.6,23.0,N/A,,Clear,300,2012-10-14 15:53:00
10:53 AM,62.1,37.9,41,30.09,10.0,WNW,21.9,28.8,N/A,,Clear,300,2012-10-14 16:53:00
11:53 AM,64.0,35.1,34,30.08,10.0,NW,18.4,27.6,N/A,,Clear,310,2012-10-14 17:53:00
12:53 PM,68.0,33.1,27,30.06,10.0,NNW,17.3,27.6,N/A,,Partly Cloudy,330,2012-10-14 18:53:00
1:53 PM,68.0,32.0,26,30.10,10.0,WNW,19.6,31.1,N/A,,Partly Cloudy,290,2012-10-14 19:53:00
2:53 PM,68.0,32.0,26,30.03,10.0,NNW,16.1,25.3,N/A,,Partly Cloudy,330,2012-10-14 20:53:00
3:53 PM,68.0,30.9,25,30.04,10.0,WNW,13.8,23.0,N/A,,Clear,300,2012-10-14 21:53:00
4:53 PM,66.9,30.9,26,30.03,10.0,NW,13.8,-,N/A,,Clear,310,2012-10-14 22:53:00
5:53 PM,62.1,33.1,34,30.05,10.0,NNW,4.6,-,N/A,,Clear,340,2012-10-14 23:53:00
6:53 PM,48.9,34.0,56,30.08,10.0,SSW,4.6,-,N/A,,Clear,210,2012-10-15 00:53:00
7:53 PM,48.0,33.1,56,30.09,10.0,Calm,Calm,-,N/A,,Clear,0,2012-10-15 01:53:00
8:53 PM,46.0,35.1,66,30.06,10.0,West,3.5,-,N/A,,Clear,270,2012-10-15 02:53:00
9:53 PM,37.0,33.1,86,30.08,10.0,SW,4.6,-,N/A,,Clear,230,2012-10-15 03:53:00
10:53 PM,37.9,33.1,83,30.06,10.0,WSW,4.6,-,N/A,,Clear,240,2012-10-15 04:53:00
11:53 PM,37.9,33.1,83,30.04,10.0,West,3.5,-,N/A,,Clear,280,2012-10-15 05:53:00